Location: Hokitika
(42.7170°S, 170.9670°E)
Time: 04:56:50
(UTC+13:00)

Lacrosse 5 - Pass Details

Date: 24 January 2019
Orbit: 715 x 724 km, 57.0° (Epoch: 16 October)

Event Time Altitude Azimuth Distance (km) Brightness Sun altitude
Rises 22:51:13 0° 238° (WSW) 3,158 6.7 -15.9°
Reaches altitude 10° 22:54:06 10° 253° (WSW) 2,228 5.3 -16.2°
Maximum altitude 22:57:54 21° 301° (WNW) 1,587 3.7 -16.7°
Enters shadow 23:01:13 12° 346° (NNW) 2,079 3.9 -17.1°
